Regional Weather Roundup
Issued by NWS Cleveland, OH

Home | Current Version | Previous Version | Graphics & Text | Print | Product List | Glossary On
Versions: 1 2 3 4 5 6 7 8 9 10 11 12 13 14 15 16 17 18 19 20 21 22 23 24 25 26 27 28 29 30 31 32 33 34 35 36 37 38 39 40 41 42 43 44 45 46 47 48 49 50
000
ASUS41 KCLE 012310
RWRCLE
OHIO REGIONAL WEATHER ROUNDUP
NATIONAL WEATHER SERVICE WILMINGTON, OH
700 PM EDT SAT AUG 01 2015

NOTE: "FAIR" INDICATES FEW OR NO CLOUDS BELOW 12,000 FEET WITH NO
SIGNIFICANT WEATHER AND/OR OBSTRUCTIONS TO VISIBILITY.

OHZ001>008-015>018-024>027-034-035-043-044-020000-
   NORTHWEST OHIO

CITY           SKY/WX    TMP DP  RH WIND       PRES   REMARKS
DEFIANCE       PTSUNNY   81  52  36 VRB6G16   29.93S
FINDLAY        MOSUNNY   83  53  35 W14G20    29.92S
TOLEDO EXPRESS SUNNY     80  54  40 W12       29.90S
TOLEDO EXEC    MOSUNNY   82  51  34 W17       29.90S
LIMA           SUNNY     80  54  40 W12G17    29.95S
$$

OHZ009>014-019>023-028>033-038-089-020000-
   NORTHEAST OHIO

CITY           SKY/WX    TMP DP  RH WIND       PRES   REMARKS
CLE-HOPKINS    MOSUNNY   81  52  36 W14       29.91F
CLE-LAKEFRONT  MOSUNNY   80  58  46 W13       29.88F
CUY CO. ARPT   MOSUNNY   81  55  41 NW14      29.91F
LORAIN-ELYRIA  SUNNY     79  54  41 W8        29.91F
ASHTABULA      PTSUNNY   78  52  40 W8        29.91R
AKRON-CANTON   MOSUNNY   80  54  40 NW9       29.92F
WOOSTER        MOSUNNY   78  53  41 W9        29.93F
MANSFIELD      SUNNY     79  53  40 W8        29.94F
YOUNGSTOWN     MOSUNNY   78  52  40 NW8       29.91S
$$

OHZ042-051>053-060>062-070>072-077>081-020000-
  SOUTHWEST OHIO

CITY           SKY/WX    TMP DP  RH WIND       PRES   REMARKS
CINC-COVINGTON MOSUNNY   81  56  42 N9        29.98S
CINC-LUNKEN    MOSUNNY   81  56  42 W10       29.97S
HAMILTON       MOSUNNY   80  57  45 NW6       29.97F
DAYTON         MOSUNNY   80  56  43 NW7       29.98S
WRIGHT-PAT AFB MOSUNNY   81  54  39 W5        29.97S
DAYTON GENERAL SUNNY     81  52  36 NW6       29.97F
WILMINGTON     MOSUNNY   80  51  36 W9        29.97F
$$

OHZ036-037-039>041-045>050-054>059-063>069-073>076-082>088-020000-
  CENTRAL AND SOUTHEAST OHIO

CITY           SKY/WX    TMP DP  RH WIND       PRES   REMARKS
COLUMBUS       MOSUNNY   80  54  40 W12       29.94S
OSU AIRPORT    MOSUNNY   79  57  46 W13       29.95S
BOLTON FIELD   SUNNY     79  57  47 W5        29.96S
RICKENBACK AFB SUNNY     80  56  44 W12       29.94F
NEWARK         SUNNY     82  54  37 W9        29.93F
MARION         MOSUNNY   80  52  37 NW10      29.94F
LANCASTER      SUNNY     79  57  46 W7        29.95F
ZANESVILLE     MOSUNNY   80  54  40 SW6       29.94S
NEW PHILLY     SUNNY     79  55  43 W8        29.93S
$$


USA.gov is the U.S. government's official web portal to all federal, state and local government web resources and services.